| time (UTC) | temp F | wind direction | speed MPH | gust MPH | rain 1hr in | rain 24hr in | rain mn in | humidity % | barometer mb |
| 20260504070300 | 109 | 0 | 0.0 | 0.0 | 0.00 | 0.00 | 0.00 | 22 | 974.0 |
| 20260504050331 | 106 | 0 | 0.0 | 0.0 | 0.00 | 0.00 | 0.00 | 27 | 976.0 |
| 20260504050322 | 106 | 0 | 0.0 | 0.0 | 0.00 | 0.00 | 0.00 | 27 | 976.0 |
| 20260504050319 | 106 | 0 | 0.0 | 0.0 | 0.00 | 0.00 | 0.00 | 27 | 976.0 |
| 20260504045253 | 106 | 0 | 0.0 | 0.0 | 0.00 | 0.00 | 0.00 | 28 | 977.0 |
| 20260504044229 | 106 | 0 | 0.0 | 0.0 | 0.00 | 0.00 | 0.00 | 29 | 977.0 |
| 20260504043204 | 101 | 0 | 0.0 | 0.0 | 0.00 | 0.00 | 0.00 | 32 | 977.0 |
| 20260504042140 | 103 | 0 | 0.0 | 0.0 | 0.00 | 0.00 | 0.00 | 31 | 977.0 |
| 20260504041115 | 101 | 0 | 0.0 | 0.0 | 0.00 | 0.00 | 0.00 | 32 | 977.0 |
| 20260504040051 | 102 | 0 | 0.0 | 0.0 | 0.00 | 0.00 | 0.00 | 31 | 977.0 |
| 20260504035030 | 100 | 0 | 0.0 | 0.0 | 0.00 | 0.00 | 0.00 | 34 | 977.0 |
| 20260504035025 | 100 | 0 | 0.0 | 0.0 | 0.00 | 0.00 | 0.00 | 34 | 977.0 |
| 20260504034000 | 101 | 0 | 0.0 | 0.0 | 0.00 | 0.00 | 0.00 | 33 | 977.0 |
| 20260504032935 | 100 | 0 | 0.0 | 0.0 | 0.00 | 0.00 | 0.00 | 34 | 977.0 |
| 20260504031911 | 100 | 0 | 0.0 | 0.0 | 0.00 | 0.00 | 0.00 | 36 | 978.0 |
| 20260504030847 | 100 | 0 | 0.0 | 0.0 | 0.00 | 0.00 | 0.00 | 36 | 978.0 |
| 20260504025822 | 99 | 0 | 0.0 | 0.0 | 0.00 | 0.00 | 0.00 | 36 | 978.0 |
| 20260504024757 | 97 | 0 | 0.0 | 0.0 | 0.00 | 0.00 | 0.00 | 37 | 978.0 |
| 20260504023733 | 99 | 0 | 0.0 | 0.0 | 0.00 | 0.00 | 0.00 | 35 | 978.0 |
| 20260504022709 | 97 | 0 | 0.0 | 0.0 | 0.00 | 0.00 | 0.00 | 38 | 978.0 |
| 20260504021648 | 97 | 0 | 0.0 | 0.0 | 0.00 | 0.00 | 0.00 | ||
| 20260504021644 | 97 | 0 | 0.0 | 0.0 | 0.00 | 0.00 | 0.00 | 39 | 978.0 |
| 20260504020619 | 97 | 0 | 0.0 | 0.0 | 0.00 | 0.00 | 0.00 | 39 | 978.0 |
| 20260504015554 | 97 | 0 | 0.0 | 0.0 | 0.00 | 0.00 | 0.00 | 39 | 978.0 |
| 20260504014533 | 96 | 0 | 0.0 | 0.0 | 0.00 | 0.00 | 0.00 | 40 | 978.0 |
| 20260504014530 | 96 | 0 | 0.0 | 0.0 | 0.00 | 0.00 | 0.00 | 40 | 978.0 |
| 20260504013505 | 96 | 0 | 0.0 | 0.0 | 0.00 | 0.00 | 0.00 | 41 | 978.0 |
| 20260504012441 | 94 | 0 | 0.0 | 0.0 | 0.00 | 0.00 | 0.00 | 43 | 978.0 |
| 20260504011412 | 94 | 0 | 0.0 | 0.0 | 0.00 | 0.00 | 0.00 | 44 | 978.0 |
| 20260504010955 | 93 | 0 | 0.0 | 0.0 | 0.00 | 0.00 | 0.00 | 45 | 978.0 |
| 20260504005930 | 92 | 0 | 0.0 | 0.0 | 0.00 | 0.00 | 0.00 | 44 | 978.0 |
| 20260504004904 | 91 | 0 | 0.0 | 0.0 | 0.00 | 0.00 | 0.00 | 47 | 977.0 |
| 20260504003840 | 91 | 0 | 0.0 | 0.0 | 0.00 | 0.00 | 0.00 | 49 | 977.0 |
| 20260504002815 | 90 | 0 | 0.0 | 0.0 | 0.00 | 0.00 | 0.00 | 50 | 977.0 |
| 20260504001750 | 89 | 0 | 0.0 | 0.0 | 0.00 | 0.00 | 0.00 | 53 | 977.0 |
| 20260504000725 | 88 | 0 | 0.0 | 0.0 | 0.00 | 0.00 | 0.00 | 59 | 977.0 |
| 20260503235700 | 87 | 0 | 0.0 | 0.0 | 0.00 | 0.00 | 0.00 | 59 | 977.0 |
| 20260503234633 | 89 | 0 | 0.0 | 0.0 | 0.00 | 0.00 | 0.00 | 57 | 977.0 |
| 20260503233609 | 87 | 0 | 0.0 | 0.0 | 0.00 | 0.00 | 0.00 | 60 | 977.0 |
| 20260503232544 | 87 | 0 | 0.0 | 0.0 | 0.00 | 0.00 | 0.00 | 60 | 977.0 |
| 20260503231519 | 87 | 0 | 0.0 | 0.0 | 0.00 | 0.00 | 0.00 | 59 | 977.0 |
| 20260503230454 | 86 | 0 | 0.0 | 0.0 | 0.00 | 0.00 | 0.00 | 59 | 977.0 |
| 20260503225429 | 87 | 0 | 0.0 | 0.0 | 0.00 | 0.00 | 0.00 | 58 | 976.0 |
| 20260503224406 | 0 | 0 | 0.0 | 0.0 | 0.00 | 0.00 | 0.00 | 55 | 976.0 |
| 20260503223340 | 88 | 0 | 0.0 | 0.0 | 0.00 | 0.00 | 0.00 | 56 | 976.0 |
| 20260503222315 | 88 | 0 | 0.0 | 0.0 | 0.00 | 0.00 | 0.00 | 57 | 976.0 |
| 20260503221251 | 88 | 0 | 0.0 | 0.0 | 0.00 | 0.00 | 0.00 | 56 | 976.0 |
| 20260503220223 | 89 | 0 | 0.0 | 0.0 | 0.00 | 0.00 | 0.00 | 55 | 976.0 |
| 20260503215159 | 88 | 0 | 0.0 | 0.0 | 0.00 | 0.00 | 0.00 | 56 | 976.0 |
| 20260503214133 | 88 | 0 | 0.0 | 0.0 | 0.00 | 0.00 | 0.00 | 57 | 976.0 |
| 20260503213108 | 86 | 0 | 0.0 | 0.0 | 0.00 | 0.00 | 0.00 | 60 | 975.0 |
| 20260503212043 | 88 | 0 | 0.0 | 0.0 | 0.00 | 0.00 | 0.00 | 55 | 975.0 |
| 20260503211018 | 87 | 0 | 0.0 | 0.0 | 0.00 | 0.00 | 0.00 | 57 | 975.0 |
| 20260503205953 | 88 | 0 | 0.0 | 0.0 | 0.00 | 0.00 | 0.00 | 55 | 975.0 |
| 20260503204928 | 88 | 0 | 0.0 | 0.0 | 0.00 | 0.00 | 0.00 | 55 | 975.0 |
| 20260503203903 | 88 | 0 | 0.0 | 0.0 | 0.00 | 0.00 | 0.00 | 55 | 975.0 |
| 20260503202838 | 88 | 0 | 0.0 | 0.0 | 0.00 | 0.00 | 0.00 | 56 | 975.0 |
| 20260503201813 | 87 | 0 | 0.0 | 0.0 | 0.00 | 0.00 | 0.00 | 57 | 975.0 |
| 20260503201322 | 86 | 0 | 0.0 | 0.0 | 0.00 | 0.00 | 0.00 | 59 | 975.0 |
| 20260503200257 | 88 | 0 | 0.0 | 0.0 | 0.00 | 0.00 | 0.00 | 55 | 975.0 |
| 20260503195233 | 89 | 0 | 0.0 | 0.0 | 0.00 | 0.00 | 0.00 | 53 | 975.0 |
| 20260503194207 | 88 | 0 | 0.0 | 0.0 | 0.00 | 0.00 | 0.00 | 55 | 975.0 |
| 20260503193142 | 88 | 0 | 0.0 | 0.0 | 0.00 | 0.00 | 0.00 | 55 | 975.0 |
| 20260503192116 | 89 | 0 | 0.0 | 0.0 | 0.00 | 0.00 | 0.00 | 53 | 975.0 |
| 20260503191051 | 88 | 0 | 0.0 | 0.0 | 0.00 | 0.00 | 0.00 | 55 | 975.0 |
| 20260503190026 | 88 | 0 | 0.0 | 0.0 | 0.00 | 0.00 | 0.00 | 55 | 976.0 |
| 20260503185325 | 90 | 0 | 0.0 | 0.0 | 0.00 | 0.00 | 0.00 | 52 | 975.0 |
| 20260503184303 | 89 | 0 | 0.0 | 0.0 | 0.00 | 0.00 | 0.00 | 54 | 975.0 |
| 20260503184301 | 89 | 0 | 0.0 | 0.0 | 0.00 | 0.00 | 0.00 | 54 | 975.0 |
| 20260503183236 | 90 | 0 | 0.0 | 0.0 | 0.00 | 0.00 | 0.00 | 53 | 976.0 |
| 20260503182210 | 89 | 0 | 0.0 | 0.0 | 0.00 | 0.00 | 0.00 | 55 | 976.0 |
| 20260503181145 | 90 | 0 | 0.0 | 0.0 | 0.00 | 0.00 | 0.00 | 54 | 976.0 |
| 20260503180121 | 89 | 0 | 0.0 | 0.0 | 0.00 | 0.00 | 0.00 | 53 | 976.0 |
| 20260503175054 | 91 | 0 | 0.0 | 0.0 | 0.00 | 0.00 | 0.00 | 52 | 976.0 |
| 20260503174029 | 89 | 0 | 0.0 | 0.0 | 0.00 | 0.00 | 0.00 | 54 | 976.0 |
| 20260503173010 | 91 | 0 | 0.0 | 0.0 | 0.00 | 0.00 | 0.00 | 51 | 976.0 |
| 20260503173003 | 91 | 0 | 0.0 | 0.0 | 0.00 | 0.00 | 0.00 | 51 | 976.0 |
| 20260503171940 | 91 | 0 | 0.0 | 0.0 | 0.00 | 0.00 | 0.00 | 51 | 976.0 |
| 20260503171938 | 91 | 0 | 0.0 | 0.0 | 0.00 | 0.00 | 0.00 | 51 | 976.0 |
| 20260503170912 | 91 | 0 | 0.0 | 0.0 | 0.00 | 0.00 | 0.00 | 52 | 976.0 |
| 20260503150414 | 95 | 0 | 0.0 | 0.0 | 0.00 | 0.00 | 0.00 | 46 | 975.0 |
| 20260503140144 | 94 | 0 | 0.0 | 0.0 | 0.00 | 0.00 | 0.00 | 45 | 974.0 |
| 20260503130941 | 96 | 0 | 0.0 | 0.0 | 0.00 | 0.00 | 0.00 | 40 | 973.0 |
| 20260503110444 | 102 | 0 | 0.0 | 0.0 | 0.00 | 0.00 | 0.00 | 30 | 971.0 |
| 20260503110442 | 102 | 0 | 0.0 | 0.0 | 0.00 | 0.00 | 0.00 | 30 | 971.0 |
| 20260503100213 | 107 | 0 | 0.0 | 0.0 | 0.00 | 0.00 | 0.00 | 26 | 971.0 |
| 20260503080724 | 110 | 0 | 0.0 | 0.0 | 0.00 | 0.00 | 0.00 | 23 | 972.0 |
| 20260503072543 | 107 | 0 | 0.0 | 0.0 | 0.00 | 0.00 | 0.00 | 25 | 973.0 |
| 20260503071518 | 106 | 0 | 0.0 | 0.0 | 0.00 | 0.00 | 0.00 | 27 | 973.0 |
| 20260503070453 | 106 | 0 | 0.0 | 0.0 | 0.00 | 0.00 | 0.00 | 26 | 973.0 |